Regional Weather Roundup
Issued by NWS Charleston, SC

Current Version | Previous Version | Graphics & Text | Print | Product List | Glossary On
Versions: 1 2 3 4 5 6 7 8 9 10 11 12 13 14 15 16 17 18 19 20 21 22 23 24 25 26 27 28 29 30 31 32 33 34 35 36 37 38 39 40 41 42 43 44 45 46 47 48 49 50
000 ASUS42 KCHS 220626 RWRCHS REGIONAL WEATHER ROUNDUP NATIONAL WEATHER SERVICE CHARLESTON SC 200 AM EDT FRI SEP 22 2017 NOTE: "FAIR" INDICATES FEW OR NO CLOUDS BELOW 12,000 FEET WITH NO SIGNIFICANT WEATHER AND/OR OBSTRUCTIONS TO VISIBILITY. NOT ALL STATIONS ARE QUALITY CONTROLLED. USE DATA WITH CAUTION... ESPECIALLY DEWPOINT OBSERVATIONS. SCZ027-030-031-034>040-042>050-220700- ...SOUTHEAST SOUTH CAROLINA... CITY SKY/WX TMP DP RH WIND PRES REMARKS N CHARLESTON PTCLDY 70 67 90 CALM 30.02S 6HR MIN TEMP: 69; 6HR MAX TEMP: 76; WATERFRONT PRK N/A 77 73 87 CALM 29.86F JOHNS ISLAND FAIR 73 72 94 CALM 30.02S PINOPOLIS N/A 72 68 88 VRB2 29.94F MONCKS CORNER FAIR 66 64 94 CALM 30.02S SUMMERVILLE FAIR 68 66 94 CALM 30.03S BEAUFORT MCAS CLEAR 71 71 100 NW3 30.01S 6HR MIN TEMP: 71; 6HR MAX TEMP: 78; 6HR PCP: TRACE; BEAUFORT ARPT FAIR 73 72 94 CALM 30.01S HILTON HEAD IS CLEAR 73 73 100 CALM 30.01S WALTERBORO CLEAR 66 64 94 CALM 30.03S ALLENDALE NOT AVBL ...SOUTHERN MIDLANDS AND PEE DEE... CITY SKY/WX TMP DP RH WIND PRES REMARKS GEORGETOWN FAIR 68 68 100 CALM 30.03S FOG KINGSTREE FAIR 63 63 100 CALM 30.04R ORANGEBURG CLEAR 70 66 87 CALM 30.04R 6HR MIN TEMP: 69; 6HR MAX TEMP: 77; BARNWELL FAIR 72 70 94 CALM 30.03R AIKEN FAIR 68 64 88 NE3 30.06F MANNING FAIR 64 59 82 CALM 30.03S COLUMBIA PTCLDY 73 69 87 E6 30.02R 6HR MIN TEMP: 72; 6HR MAX TEMP: 84; 6HR PCP: 0.42; SUMTER PTCLDY 68 65 90 CALM 30.02S 6HR MIN TEMP: 68; 6HR MAX TEMP: 77; FLORENCE CLEAR 68 67 96 CALM 30.04S 6HR MIN TEMP: 68; 6HR MAX TEMP: 77; MYRTLE BEACH CLEAR 70 68 93 NE6 30.04R N MYRTLE BEACH CLEAR 69 67 93 NE5 30.03R 6HR MIN TEMP: 69; 6HR MAX TEMP: 78; $$ GAZ063-065-086>088-099>101-113>116-118-119-134>141-150-220700- ...SOUTHEAST GEORGIA... CITY SKY/WX TMP DP RH WIND PRES REMARKS SAVANNAH ARPT CLEAR 73 72 96 CALM 30.02R 6HR MIN TEMP: 72; 6HR MAX TEMP: 80; HUNTER AAF PTCLDY 74 72 94 CALM 29.99R 6HR MIN TEMP: 72; 6HR MAX TEMP: 79; FORT STEWART PTCLDY 72 70 93 CALM 29.98F 6HR MIN TEMP: 72; 6HR MAX TEMP: 79; STATESBORO CLEAR 70 69 97 N3 30.03R SYLVANIA CLEAR 68 68 100 CALM 30.04S FOG CLAXTON FAIR 72 71 97 CALM 30.01F FOG ...CSRA...CENTRAL AND FAR SOUTHEAST GEORGIA... CITY SKY/WX TMP DP RH WIND PRES REMARKS THOMSON PTCLDY 70 67 90 CALM 30.08S AUGUSTA-BUSH CLEAR 71 67 87 CALM 30.01F 6HR MIN TEMP: 69; 6HR MAX TEMP: 79; AUGUSTA-DANIEL CLEAR 74 67 78 S5 30.03F SWAINSBORO FAIR 70 70 100 CALM 30.03S FOG VIDALIA PTCLDY 73 72 94 CALM 30.02S EASTMAN FAIR 69 69 100 CALM 30.04S HAZLEHURST FAIR 75 71 87 SE3 30.00S ALMA FOG 70 69 97 E3 30.01S VSB 1/2 6HR MIN TEMP: 70; 6HR MAX TEMP: 76; WAYCROSS MOCLDY 71 68 90 CALM 30.00F JESUP NOT AVBL BAXLEY FAIR 70 70 100 CALM 30.01S BRUNSWICK CLOUDY 72 70 94 CALM 30.00S FOG SAINT SIMONS CLOUDY 80 74 81 E7 29.99S 6HR MIN TEMP: 79; 6HR MAX TEMP: 80; $$ SCZ027-028-034-036>038-045-046-048>050-GAZ119-141-220700- ...LAKE AND SUPPLEMENTAL COASTAL OBSERVATIONS... STATION/POSITION TIME TEMP WIND PRES WAVE SWELL AIR SEA DIR/SP/G HT/PER HT/PER/DIR (UTC) (F) (DEG/KT/KT) (MB) (FT/S) (FT/S/D) WINYAH BAY 0445 78 190/ 3 1016.0 LAKE MURRAY 0520 78 240/ 2/ 4 1015.6 ACE BASIN NERRS 0445 72 CALM 1016.0 FORT PULASKI 0542 140/ 2/ 3 1016.6R SAPELO ISLAND 0500 77 CALM 1016.0 $$ ANZ835-935-AMZ111-154-330-350-352-354-370-450-454-472-220700- ...C-MAN AND BUOY OBSERVATIONS... STATION/POSITION TIME TEMP WIND PRES WAVE SWELL AIR SEA DIR/SP/G HT/PER HT/PER/DIR (UTC) (F) (DEG/KT/KT) (MB) (FT/S) (FT/S/D) BUOY 41004 0550 80 82 160/ 4/ 4 1015.7F 3/10 3/120/10 BUOY 41008 0550 80 81 90/ 10/ 12 1015.5F 2/11 2/100/11 FOLLY BEACH CMAN 0600 79 160/ 4/ 5 1016.9F CAPERS NEARSHORE 0508 77 81 150/ 6/ 8 1016.3F FRIPP NEARSHORE 0508 80 150/ 6/ 8 1021.8F STATION/POSITION TIME TEMP WIND PRES WAVE SWELL AIR SEA DIR/SP/G HT/PER HT/PER/DIR (UTC) (F) (DEG/KT/KT) (MB) (FT/S) (FT/S/D) 5E ST. MARYS GA 0600 82 N/A 2/12 2/110/12 FRYING PAN BUOY 0550 80 82 80/ 8/ 10 1016.0F 3/11 3/110/11 BUOY 41025 0550 75 75 30/ 6/ 8 1016.9F 5/11 5/ 80/11 CAPE LOOKOUT NC 0600 77 80/ 9/ 10 1016.7F BUOY 41002 0550 78 81 130/ 2/ 4 1016.0F 5/10 5/ 80/10 BUOY 41010 0550 70/ 12/ 16 1014.5F 5/11 3/11 ST AUGUSTINE FL 0600 81 83 70/ 11/ 12 1015.2F $$

USA.gov is the U.S. government's official web portal to all federal, state and local government web resources and services.